Вернуться в каталог

OV1-10 R/B

АктивенPO
NORAD 2621·ROCKET BODY·🇺🇸 United States

Запущен Dec 11, 1966 с Vandenberg Space Force Base

Loading…

Ближайшие Пролёты (ближайшие 24 часа)

TLE

СвежийSource: Space-Track

Эпоха: Sep 14, 2026, 17:21 UTC

1 02621U 66111C   26257.72295128  .00000544  00000-0  61595-4 0  9997
2 02621  93.3945 243.4862 0058169 113.0651 247.6721 14.85694235187654

Отслеживайте OV1-10 R/B в реальном времени с AllMySat

Download on the App Store